Change the Weather History Date:

Saturday, March 5, 2011

  Actual Average Record
Temperature  
Mean Temperature 29 °F 34 °F  
Max Temperature 47 °F 49 °F 79 °F (1910)
Min Temperature 11 °F 20 °F -14 °F (1888)
Degree Days  
Heating Degree Days 36 30  
Month to date heating degree days 166 155  
Since 1 July heating degree days 5228 5183  
Cooling Degree Days 0 0  
Month to date cooling degree days 0 0  
Year to date cooling degree days 0 0  
Moisture  
Dew Point 17 °F    
Average Humidity 65    
Maximum Humidity 92    
Minimum Humidity 38    
Precipitation  
Precipitation 0.00 in 0.02 in 1.12 in (1946)
Month to date precipitation T 0.13  
Year to date precipitation 1.73 0.97  
Snow  
Snow 0.00 in 0.20 in 10.20 in (1946)
Month to date snowfall T 0.8  
Since 1 July snowfall 30.0 21.7  
Snow Depth 0.00 in    
Sea Level Pressure  
Sea Level Pressure 30.32 in    
Wind  
Wind Speed 7 mph (SE)    
Max Wind Speed 17 mph    
Max Gust Speed 25 mph    
Visibility 10 miles    
Events      
T = Trace of Precipitation, MM = Missing Value Source: NWS Daily Summary

Daily Weather History Graph

Daily Weather History Graph

Search for Another Location

Airport or City:

Trip Planner

Search our weather history database for the weather conditions in past years. The results will help you decide how hot, cold, wet, or windy it might be!

Date:

Astronomy

Mar. 05, 2011 Rise Set
Actual Time 7:11 AM CST 6:37 PM CST
Civil Twilight 6:43 AM CST 7:05 PM CST
Nautical Twilight 6:11 AM CST 7:37 PM CST
Astronomical Twilight 5:39 AM CST 8:09 PM CST
Moon 7:08 AM CST 7:47 PM CST
Length of Visible Light 12h 22m
Length of Day
11h 26m
New Moon, 1% of the Moon is Illuminated
Mar 5
New Moon
Mar 12
First Quarter
Mar 19
Full
Mar 26
Last Quarter
Apr 3
New

Hourly Weather History & Observations

Time (CST) Temp. Windchill Dew Point Humidity Pressure Visibility Wind Dir Wind Speed Gust Speed Precip Events Conditions
12:53 AM 14.0 °F 8.2 °F 10.9 °F 88% 30.46 in 10.0 mi NW 3.5 mph - N/A   Clear
1:53 AM 15.1 °F 9.4 °F 12.0 °F 88% 30.46 in 10.0 mi NW 3.5 mph - N/A   Clear
2:53 AM 12.9 °F 6.9 °F 10.0 °F 88% 30.45 in 10.0 mi NW 3.5 mph - N/A   Clear
3:53 AM 15.1 °F - 10.9 °F 84% 30.43 in 10.0 mi Calm Calm - N/A   Clear
4:53 AM 14.0 °F - 10.9 °F 88% 30.44 in 10.0 mi Calm Calm - N/A   Clear
5:53 AM 12.9 °F 6.9 °F 9.0 °F 84% 30.43 in 10.0 mi East 3.5 mph - N/A   Clear
6:53 AM 12.0 °F 4.1 °F 9.0 °F 88% 30.45 in 10.0 mi East 4.6 mph - N/A   Clear
7:53 AM 14.0 °F 6.5 °F 10.9 °F 88% 30.46 in 10.0 mi ESE 4.6 mph - N/A   Clear
8:53 AM 19.4 °F 12.8 °F 15.8 °F 86% 30.35 in 10.0 mi East 4.6 mph - N/A   Clear
9:53 AM 24.1 °F 17.0 °F 18.0 °F 77% 30.46 in 10.0 mi ESE 5.8 mph - N/A   Clear
10:53 AM 30.0 °F 24.1 °F 19.0 °F 64% 30.44 in 10.0 mi ESE 5.8 mph - N/A   Clear
11:53 AM 35.1 °F 30.1 °F 21.0 °F 57% 30.40 in 10.0 mi SE 5.8 mph - N/A   Clear
12:53 PM 41.0 °F 36.4 °F 21.9 °F 47% 30.35 in 10.0 mi ESE 6.9 mph - N/A   Clear
1:53 PM 44.6 °F 40.7 °F 23.0 °F 43% 30.23 in 10.0 mi SE 6.9 mph - N/A   Clear
2:53 PM 46.9 °F - 24.1 °F 41% 30.28 in 10.0 mi South 10.4 mph 17.3 mph N/A   Clear
3:53 PM 46.0 °F 41.4 °F 23.0 °F 40% 30.25 in 10.0 mi South 9.2 mph - N/A   Clear
4:53 PM 45.0 °F 40.1 °F 24.1 °F 44% 30.22 in 10.0 mi SSE 9.2 mph - N/A   Clear
5:53 PM 42.8 °F 37.0 °F 23.0 °F 46% 30.13 in 10.0 mi SSE 10.4 mph - N/A   Clear
6:53 PM 39.0 °F 32.3 °F 21.0 °F 49% 30.21 in 10.0 mi SE 10.4 mph - N/A   Partly Cloudy
7:53 PM 37.0 °F 29.8 °F 19.9 °F 50% 30.21 in 10.0 mi SE 10.4 mph - N/A   Mostly Cloudy
8:53 PM 35.1 °F 27.4 °F 21.0 °F 57% 30.19 in 10.0 mi SE 10.4 mph - N/A   Overcast
9:53 PM 35.1 °F 25.9 °F 19.0 °F 52% 30.17 in 10.0 mi SE 13.8 mph 20.7 mph N/A   Mostly Cloudy
10:53 PM 34.0 °F 23.0 °F 16.0 °F 48% 30.15 in 10.0 mi SE 18.4 mph 25.3 mph N/A   Overcast
11:53 PM 33.1 °F 23.0 °F 14.0 °F 46% 30.13 in 10.0 mi SSE 15.0 mph 20.7 mph N/A   Mostly Cloudy